GFSSGP_850_thetae_057.txt.gz
Theta_e
317 315 318 325 318 313 315 317 317 319 320 322 323 321 324 329 339 340 339 328 326 326 325 322 323 322 321 321 321 320 320 320 320 320 320 319 319 319 319 319 319 319 318 318 318 318 318 318 318
316 313 322 322 316 316 314 316 318 318 320 322 322 323 329 334 339 340 333 328 326 326 326 325 323 323 323 322 323 322 321 321 321 321 321 320 320 320 319 319 320 319 319 319 319 319 319 319 318
317 317 322 318 314 316 316 317 319 319 321 321 321 323 334 340 341 339 331 327 326 326 325 326 324 324 323 324 324 323 322 322 322 321 321 321 320 320 320 320 320 320 320 320 319 319 319 319 319
327 322 325 321 320 316 317 317 317 318 322 322 322 321 338 340 341 339 329 327 326 326 326 326 325 324 324 324 324 323 323 322 322 322 321 321 321 321 321 320 321 321 320 320 320 320 319 319 319
323 327 323 319 319 318 318 318 320 318 319 321 323 322 338 339 340 337 331 327 327 326 326 326 325 323 323 324 324 324 323 322 322 322 322 322 322 321 321 321 321 320 320 320 320 320 320 320 319
330 324 322 324 320 322 321 322 322 319 321 324 323 322 338 339 340 338 335 329 327 328 328 326 325 323 323 323 324 324 324 323 323 323 322 322 321 321 320 320 319 319 319 320 320 320 320 320 320
328 319 322 322 323 323 322 322 322 321 323 324 326 325 336 338 338 339 337 328 326 327 327 326 325 324 322 323 324 324 323 323 323 322 322 321 321 320 320 319 319 319 319 319 319 320 320 320 320
325 324 328 323 324 323 324 326 325 325 325 326 327 322 326 336 337 337 333 326 326 326 327 326 325 325 323 323 323 324 325 324 324 323 322 321 320 320 319 319 319 319 319 318 318 319 319 319 320
321 326 328 328 327 326 326 324 326 327 326 326 326 327 327 336 339 338 332 326 326 326 326 326 326 325 323 323 323 324 324 325 325 324 323 322 322 321 320 320 319 318 318 318 317 317 318 319 319
316 319 326 326 325 325 325 324 325 324 324 324 325 326 326 333 340 338 330 326 326 327 327 327 326 325 324 323 323 323 324 324 325 324 324 324 323 321 320 319 319 318 317 317 317 317 316 317 318
314 318 321 322 322 323 323 323 322 322 323 324 324 325 325 327 330 340 334 329 326 326 327 327 327 326 325 325 325 324 324 325 325 325 324 323 324 322 321 320 319 318 317 318 317 316 316 316 316
312 313 316 317 318 319 319 320 320 321 321 322 323 323 324 326 327 327 338 336 330 327 325 327 327 327 326 325 325 325 325 325 325 325 325 325 325 324 322 322 320 318 318 318 317 316 315 315 315
310 311 313 313 314 314 316 319 320 320 320 321 321 322 324 325 326 327 326 332 337 331 328 327 327 327 326 325 324 325 324 325 325 325 326 326 327 326 324 324 322 321 321 322 323 320 318 316 316
310 310 310 311 311 312 314 315 316 317 317 318 318 319 320 321 324 325 326 328 333 337 338 329 327 326 325 325 325 325 324 325 325 324 327 328 327 329 328 329 327 329 332 333 335 331 328 323 323
310 309 308 310 311 312 314 314 315 317 317 318 318 319 319 321 322 323 325 327 328 335 335 338 334 328 327 327 328 329 329 334 335 330 330 331 332 333 332 330 333 337 338 339 339 338 338 332 330
309 306 307 308 311 311 314 314 316 315 315 315 315 316 317 318 319 321 325 327 328 330 336 337 340 338 337 336 332 335 336 334 336 338 336 333 333 336 330 333 335 338 338 342 342 342 340 337 333
306 307 308 309 309 310 311 311 311 313 313 313 314 314 314 315 316 318 321 322 325 328 331 338 339 339 340 339 337 337 336 336 336 335 334 333 331 331 331 335 336 339 338 341 344 343 341 339 335
310 309 310 310 311 310 310 310 311 312 313 313 313 313 313 314 314 315 315 319 323 325 328 329 335 337 341 341 340 337 336 336 337 337 335 334 331 331 331 332 335 338 336 341 343 344 343 341 337
309 310 310 309 310 310 309 310 311 310 311 311 312 313 313 314 314 315 315 316 319 322 327 328 329 336 341 342 339 337 336 337 337 337 335 330 331 332 331 333 336 336 332 335 342 344 344 341 338
308 308 310 310 312 311 310 311 310 310 310 311 311 312 313 313 314 314 314 315 316 319 321 323 325 327 336 339 336 336 337 336 336 335 334 331 332 332 331 332 335 332 332 335 342 345 344 341 338
311 312 312 312 312 310 309 310 310 310 310 311 312 312 312 313 313 313 313 314 315 316 317 320 323 324 326 332 336 336 337 335 335 334 332 331 334 331 330 332 332 329 335 339 344 345 344 342 339
311 312 312 312 311 310 310 310 309 309 309 309 310 311 311 312 312 313 313 314 314 315 316 316 319 324 325 326 336 336 334 334 332 332 331 332 331 327 327 329 331 332 337 341 344 345 343 341 340
310 312 311 311 309 309 310 308 308 309 308 308 308 311 314 314 315 315 314 314 314 315 315 316 318 321 324 327 331 333 334 333 332 332 331 330 327 326 327 328 335 337 338 343 345 345 344 341 339
311 310 307 306 308 309 309 309 308 308 308 308 311 314 314 314 313 314 315 315 315 315 315 316 317 320 324 324 324 330 333 333 333 332 331 328 326 326 325 325 328 339 342 344 345 345 343 339 338
307 306 307 307 307 309 308 309 310 309 310 313 312 313 313 313 312 312 312 314 315 315 315 316 317 319 322 327 324 330 332 332 333 332 328 327 326 326 325 327 333 344 344 344 345 343 339 339 338
309 306 307 309 310 308 308 309 310 312 313 313 314 313 313 312 311 311 312 312 316 317 316 315 316 318 320 324 331 332 333 333 331 329 327 326 326 326 325 331 343 345 345 345 341 338 339 338 339
309 309 307 308 307 307 308 309 310 311 313 313 312 312 312 311 311 312 313 313 317 319 319 318 317 319 320 322 329 332 331 329 328 325 326 326 327 328 327 338 344 345 346 342 339 338 339 338 340
307 307 307 306 311 312 309 310 311 310 310 312 311 311 312 311 312 314 315 314 319 319 318 322 323 325 322 322 327 330 328 326 325 326 326 327 328 329 332 344 346 346 344 340 338 339 339 341 338
307 309 309 307 308 308 309 310 309 311 312 312 311 311 311 311 314 314 314 316 317 317 320 324 331 329 325 322 324 326 326 325 325 326 327 328 331 330 340 345 345 344 340 338 338 339 339 338 336
308 308 308 304 305 312 310 311 310 309 308 309 310 311 312 312 314 313 314 316 315 317 319 324 333 336 328 324 322 322 322 324 325 325 327 331 333 332 341 344 345 340 339 338 340 339 336 333 333

GFSSGP_850_thetae_060.txt.gz
Theta_e
319 315 317 325 316 312 314 315 316 318 318 321 321 320 323 324 337 337 339 338 327 326 321 320 321 319 318 318 318 317 317 317 318 318 318 319 319 319 319 320 320 319 319 319 318 318 318 318 318
318 314 321 321 315 315 312 314 317 317 320 320 321 322 320 320 324 330 333 335 327 326 324 322 322 321 320 319 319 319 319 320 319 320 320 320 320 320 320 320 320 320 320 320 319 319 319 318 319
317 317 322 317 312 314 314 315 318 318 320 319 320 323 321 333 339 327 329 332 326 326 323 324 322 322 322 322 321 321 321 322 321 321 321 321 321 320 320 320 320 320 320 320 319 319 319 319 319
325 321 322 320 319 317 316 317 315 316 321 321 321 319 324 333 339 337 338 328 326 326 324 324 323 322 322 323 322 322 322 322 322 322 321 321 321 321 320 320 320 320 319 319 319 319 319 319 319
322 326 321 321 319 320 317 318 319 318 319 321 324 321 323 332 339 340 334 327 327 326 325 324 324 323 323 323 323 323 323 322 322 322 322 321 321 321 321 321 321 320 320 320 320 319 319 319 320
328 323 322 321 317 320 320 321 321 319 320 325 323 322 327 326 338 339 331 326 326 326 324 323 325 324 324 323 323 323 323 323 322 322 322 322 322 322 321 321 320 320 320 319 319 320 320 319 320
327 321 323 322 324 323 322 322 320 321 323 325 326 321 326 333 334 338 328 326 325 326 325 322 323 324 324 323 322 323 323 323 323 323 323 323 322 321 321 320 319 319 319 318 319 319 319 319 320
326 321 324 321 324 323 324 325 326 325 325 326 326 323 324 330 339 340 328 326 325 325 325 323 323 323 324 323 322 322 323 323 323 323 323 322 322 321 320 320 319 319 318 318 318 318 318 319 319
322 326 327 326 326 325 325 323 324 325 325 324 325 325 324 324 336 341 336 330 325 325 324 324 324 323 324 323 322 322 322 322 322 322 322 321 321 321 320 320 319 318 318 318 318 317 317 317 318
317 318 323 325 325 325 325 324 324 323 322 322 323 324 323 323 327 340 337 333 325 324 324 323 324 324 323 323 322 322 322 322 321 321 321 321 323 322 321 320 319 319 318 318 317 317 316 316 317
313 316 320 322 322 322 321 321 321 320 320 322 321 322 322 322 324 327 339 332 327 324 323 323 323 323 324 324 323 322 322 322 321 321 321 321 323 322 322 320 319 319 318 318 317 317 316 316 315
312 312 316 318 319 318 317 317 317 318 318 319 320 320 320 321 322 325 328 337 327 324 323 322 322 323 323 324 324 323 324 324 322 323 322 322 322 321 321 320 319 319 318 318 317 317 316 315 315
310 310 311 312 313 314 314 314 314 316 316 317 317 318 318 319 320 321 325 327 334 332 325 323 322 323 323 323 325 325 325 325 324 324 323 323 323 321 320 320 318 319 319 319 320 321 320 318 317
309 309 309 311 311 312 312 313 314 315 316 316 317 317 318 318 320 321 322 322 325 329 335 327 325 323 324 325 325 326 326 325 324 324 323 323 322 323 321 320 320 322 324 326 328 332 331 327 326
309 309 307 308 310 310 312 312 313 314 315 316 315 315 316 317 318 319 320 322 324 327 332 337 334 326 324 325 325 325 325 324 324 325 324 328 324 325 324 325 329 332 332 335 337 338 338 336 335
308 305 306 307 309 310 312 312 313 312 312 313 313 313 314 314 314 317 318 321 325 327 328 330 336 334 328 326 325 323 324 323 324 329 332 335 336 334 332 332 335 333 334 335 338 341 341 340 339
305 306 308 308 308 309 311 310 310 312 312 312 312 312 313 313 314 314 316 319 321 322 326 326 331 337 338 336 328 325 326 326 329 333 333 334 334 334 330 330 333 337 338 336 337 338 342 342 341
309 309 309 309 308 309 309 308 310 311 311 311 312 312 312 313 313 313 314 315 317 320 323 326 331 332 336 340 340 333 329 329 331 333 335 336 337 335 333 331 331 338 339 336 334 334 342 343 341
309 309 309 308 310 310 309 309 309 310 310 310 311 312 312 312 312 313 313 314 315 317 319 323 328 333 333 332 340 342 339 336 332 335 336 339 338 336 334 332 331 335 336 334 335 335 341 343 342
307 308 310 309 310 311 309 309 309 309 309 310 311 311 312 312 312 312 313 313 314 314 316 319 322 325 331 336 333 338 343 340 336 340 337 337 338 337 335 333 332 334 335 334 332 334 339 343 342
310 310 311 311 311 308 308 307 308 309 310 310 310 311 311 311 310 311 312 312 313 313 314 315 317 320 322 325 332 337 340 343 342 338 337 336 337 337 336 333 331 331 333 333 329 336 341 344 343
310 311 311 310 308 307 309 308 307 307 307 308 308 309 310 311 313 313 314 314 313 313 313 314 315 316 318 321 323 325 330 335 333 337 336 334 335 336 334 332 331 329 331 330 330 338 342 344 343
308 311 310 310 308 308 307 307 306 306 308 307 307 310 311 312 314 314 313 313 314 314 314 314 314 315 316 318 321 324 325 326 330 334 335 333 334 337 332 331 327 328 327 332 335 339 344 344 341
308 308 305 304 305 307 306 307 306 306 308 307 310 313 313 313 312 312 311 311 312 313 314 314 314 314 315 316 319 322 325 326 330 334 335 333 336 334 330 328 326 325 326 329 335 342 345 343 341
305 304 306 306 305 306 306 307 306 307 308 307 311 313 313 312 312 311 312 312 312 312 313 315 315 314 315 316 318 322 323 326 327 328 332 334 335 332 329 327 326 325 325 329 341 344 345 342 340
307 305 306 309 309 305 306 307 306 307 308 310 312 313 313 312 312 312 312 313 314 315 312 315 317 315 315 316 317 320 325 324 324 325 328 331 335 331 328 327 326 325 331 342 345 345 345 341 339
308 308 305 306 305 305 306 306 307 308 308 309 311 312 312 311 311 311 312 313 314 315 314 318 317 318 316 315 317 319 322 329 327 331 332 332 334 329 329 327 326 332 344 345 345 344 340 337 338
307 306 307 304 310 311 308 307 308 307 307 307 309 310 309 310 310 311 312 314 315 316 316 316 318 320 320 316 316 320 321 328 331 331 332 332 330 331 328 328 327 339 344 345 344 339 336 337 337
306 308 307 304 303 306 307 308 306 307 308 309 306 309 309 310 311 311 312 314 317 316 317 320 321 322 323 321 318 321 321 324 330 330 329 330 329 327 328 329 328 342 345 344 341 338 337 339 339
306 307 307 304 305 311 310 311 309 307 306 307 308 309 312 312 311 312 314 314 317 317 322 322 323 321 328 330 326 324 321 324 329 330 329 328 327 327 329 330 335 345 345 343 339 336 338 339 338

GFSSGP_850_thetae_063.txt.gz
Theta_e
322 315 318 324 322 321 321 321 320 322 321 321 321 322 324 324 329 331 337 336 327 326 323 320 319 320 323 322 319 319 324 326 324 320 318 319 319 319 319 319 318 318 318 318 317 317 318 318 318
322 314 321 321 320 321 321 319 321 321 321 320 321 321 323 325 323 325 328 338 327 326 324 322 321 320 320 319 317 317 319 319 319 319 320 320 320 320 320 320 319 319 318 318 318 318 318 318 319
320 314 322 324 321 319 320 319 321 320 320 319 322 323 323 327 334 332 329 328 327 325 324 323 321 320 319 318 318 319 320 320 320 321 321 321 321 321 321 320 320 319 319 319 318 319 319 319 319
323 319 321 323 321 320 319 321 320 320 321 320 321 326 325 328 333 336 336 331 329 325 325 324 322 319 319 318 319 321 321 322 321 322 322 322 322 321 321 320 320 319 319 319 319 319 319 319 319
323 325 320 322 320 321 319 320 320 322 321 321 324 327 326 327 333 337 339 334 327 325 324 324 323 321 319 319 320 321 322 322 322 322 322 322 322 321 321 320 319 319 320 319 319 319 319 319 319
326 325 327 323 320 320 321 321 322 322 322 324 327 326 327 329 329 340 339 334 325 326 324 324 323 322 321 320 321 321 322 323 323 322 322 322 322 321 321 320 320 319 320 319 319 319 319 319 319
325 327 325 326 325 324 324 321 323 324 326 327 326 325 327 326 325 341 337 329 325 325 323 324 323 321 320 320 321 321 322 322 323 322 322 322 322 321 321 320 320 319 319 319 318 318 319 319 319
327 326 325 325 324 325 324 325 325 325 326 325 325 327 327 324 324 337 337 327 324 324 322 323 323 322 320 320 321 321 322 322 322 322 322 321 321 321 320 320 319 319 318 318 317 317 317 318 318
324 325 325 325 325 325 325 325 324 324 325 324 324 324 323 322 323 326 338 328 325 323 323 322 323 323 321 320 320 321 322 322 321 321 321 320 321 320 320 319 319 319 318 318 317 317 316 316 317
321 322 323 325 325 325 325 324 324 323 324 324 323 322 322 321 323 328 332 334 326 323 323 321 321 322 322 321 321 321 321 321 321 321 321 321 321 320 319 319 319 318 318 318 318 317 316 316 315
317 319 321 324 324 324 324 322 322 322 323 324 321 320 320 320 320 322 325 336 334 324 322 322 321 321 321 321 320 321 321 321 321 321 321 321 321 320 319 319 319 319 318 318 318 317 316 316 315
314 315 317 320 321 320 323 318 319 319 320 319 318 318 318 319 319 320 321 326 336 334 324 322 321 320 320 320 321 321 321 321 321 321 321 321 320 320 319 319 319 319 318 318 317 317 317 316 316
313 313 313 313 313 315 315 318 318 318 316 316 317 317 317 318 319 319 321 324 326 332 330 323 322 321 320 319 320 321 321 321 321 321 321 321 321 321 320 319 319 319 319 319 318 318 319 319 320
311 311 312 312 313 312 314 316 315 317 315 315 315 316 317 317 318 319 320 322 323 325 327 331 325 322 322 322 321 320 320 321 321 321 323 323 323 322 321 320 319 319 320 323 324 325 328 329 330
310 311 311 312 312 313 313 314 315 313 313 315 315 315 314 314 316 317 318 319 320 324 326 328 332 327 323 323 321 321 322 322 322 323 323 322 322 322 322 323 322 320 323 330 331 334 336 337 337
311 310 311 311 311 312 313 316 314 312 312 313 313 313 313 313 314 315 316 318 319 323 326 330 332 335 328 332 326 321 322 322 323 323 323 323 322 322 324 326 327 323 328 332 333 337 338 339 340
310 310 311 312 312 313 312 313 313 312 312 312 312 313 313 313 313 314 315 315 318 320 321 322 326 330 335 337 330 323 322 322 322 322 323 323 322 324 332 332 330 329 335 335 336 336 338 338 341
312 312 312 312 312 313 313 313 313 312 312 312 312 312 312 313 313 313 314 314 315 317 319 321 323 330 330 339 339 335 326 323 322 323 325 326 326 328 334 334 335 334 337 339 338 336 336 336 341
311 311 311 311 312 312 312 312 312 312 312 312 312 311 312 312 313 313 313 314 314 315 315 317 320 322 325 334 339 341 341 339 329 325 326 328 327 333 335 335 337 335 338 340 340 339 336 335 339
310 311 311 313 312 312 312 312 312 312 312 312 312 312 311 311 311 312 311 312 313 314 314 315 315 318 321 324 325 332 339 341 340 337 333 328 330 331 336 337 340 339 336 338 339 337 336 334 338
311 312 313 311 312 311 312 310 311 311 310 311 311 311 310 310 310 312 313 312 312 312 313 314 314 315 317 318 319 323 329 336 338 337 340 339 334 332 337 338 340 339 337 336 335 335 336 335 339
312 313 312 311 311 310 311 308 311 311 311 311 311 313 313 312 312 313 313 312 312 313 314 313 313 314 315 316 316 318 321 324 328 330 333 338 340 337 339 338 338 340 336 332 329 333 335 335 339
311 312 312 311 311 311 310 310 311 311 311 312 312 312 314 314 313 312 311 312 312 311 312 313 314 313 314 314 315 316 317 321 323 324 328 333 333 335 335 337 337 337 334 330 327 331 332 335 340
311 311 309 309 310 310 310 310 310 311 311 312 311 311 312 314 313 313 312 312 312 312 312 312 313 314 314 314 314 315 316 318 321 323 326 326 327 331 334 337 337 335 330 328 326 327 333 336 342
310 311 311 310 310 309 310 310 310 311 311 312 311 311 312 314 313 312 312 312 313 314 314 313 312 313 314 314 314 315 315 317 320 323 324 325 327 332 335 337 336 331 328 326 325 326 329 337 343
311 311 312 311 309 309 309 310 310 310 310 310 311 312 313 312 312 312 312 311 313 314 315 315 314 313 315 315 314 315 315 316 318 322 324 326 327 329 333 337 335 330 328 326 325 328 336 343 344
311 311 310 311 310 311 310 310 310 311 311 311 312 313 311 311 313 313 312 312 312 313 314 316 316 316 316 317 316 315 315 316 318 322 323 324 324 324 328 335 335 330 327 326 327 337 344 345 344
311 310 311 312 312 311 310 310 310 311 310 311 313 311 311 311 313 314 313 313 313 313 315 316 318 321 320 319 319 317 315 315 317 320 325 323 323 326 331 337 334 330 327 327 338 344 345 344 340
311 311 312 312 312 312 311 311 311 311 311 312 311 311 310 312 313 314 313 313 315 315 316 315 319 322 324 322 321 321 318 315 317 320 326 330 331 333 334 334 333 330 327 333 341 344 343 337 336
310 311 312 314 313 313 314 313 311 311 311 311 311 311 311 312 313 313 314 315 316 316 315 314 315 321 324 322 323 324 323 319 317 321 325 331 331 331 332 333 329 327 328 336 343 344 339 336 337

GFSSGP_850_thetae_069.txt.gz
Theta_e
325 326 320 323 328 328 333 334 331 329 328 328 328 329 331 332 333 335 338 339 337 345 329 322 321 321 326 329 328 335 339 334 328 325 321 318 317 317 317 317 317 317 317 317 317 318 319 319 320
321 325 323 324 327 331 331 333 329 330 327 326 326 327 327 330 331 335 339 341 337 345 330 322 322 320 323 328 327 332 334 330 326 322 319 318 319 318 318 318 318 318 318 318 318 319 319 319 320
324 323 325 328 327 330 332 329 329 328 325 325 327 327 329 331 334 336 340 343 339 346 334 323 322 320 320 326 328 331 331 327 323 320 319 319 320 320 319 319 319 319 319 318 319 319 319 319 320
326 327 325 327 328 330 329 329 327 327 325 325 326 329 329 331 332 336 341 344 342 344 347 325 322 320 319 322 326 330 330 327 323 320 320 320 320 320 320 320 319 319 319 319 319 319 319 319 319
326 327 330 328 328 328 326 325 327 327 326 325 325 328 330 331 331 336 343 344 343 341 345 330 323 320 319 320 324 328 329 326 322 320 320 320 320 320 320 320 319 319 319 319 319 319 319 319 319
328 328 330 331 329 328 326 324 324 328 327 326 325 327 330 332 330 336 343 344 343 340 344 337 322 321 320 320 322 325 326 325 323 319 319 320 320 320 320 320 319 319 319 319 319 319 319 319 319
327 330 330 329 330 330 327 324 324 325 327 327 327 330 331 332 328 333 342 343 342 340 343 346 321 320 320 320 320 322 323 323 322 320 319 320 320 320 320 319 319 319 318 318 318 318 318 319 319
324 329 329 329 329 330 329 327 326 324 327 328 328 329 331 329 327 331 338 342 340 339 342 351 325 320 320 320 320 320 321 321 321 319 320 320 320 320 320 319 319 319 318 318 318 317 317 317 318
322 326 328 329 328 329 328 329 327 326 326 328 327 328 329 327 327 329 333 342 340 338 341 347 344 337 322 323 320 319 320 320 321 320 320 320 320 320 320 320 319 319 319 318 317 317 316 316 316
323 324 325 326 328 328 327 329 328 327 326 327 328 327 328 327 327 327 329 336 340 340 340 342 345 344 342 340 335 320 320 320 321 321 321 321 321 334 332 329 321 319 319 318 318 318 317 316 317
322 323 324 324 324 325 327 327 328 329 328 326 326 327 327 326 326 326 327 331 341 340 340 340 345 344 344 341 341 327 332 324 323 323 326 325 333 338 341 340 335 323 319 319 319 320 319 319 329
322 322 323 323 322 323 325 326 327 328 328 327 325 326 325 325 326 325 325 328 332 340 338 339 344 344 345 342 341 342 338 340 340 338 332 339 331 340 342 343 342 341 336 328 332 338 337 336 335
320 321 321 321 321 321 322 325 326 327 327 327 325 323 325 325 323 324 325 326 329 331 339 337 340 346 347 344 342 341 341 340 341 342 343 340 344 341 345 343 341 340 341 339 341 338 337 337 337
317 318 318 319 320 319 321 323 323 324 325 326 323 322 324 327 323 322 323 326 329 332 336 339 338 338 340 341 346 343 343 341 342 343 345 341 343 344 344 341 341 340 338 337 337 337 337 337 336
316 317 318 318 319 320 319 320 321 320 320 322 322 321 323 326 325 322 321 324 327 328 324 330 339 339 336 327 337 345 342 342 343 343 343 343 330 339 341 339 341 340 339 337 336 327 335 332 331
317 317 317 318 319 318 318 319 320 319 319 320 320 321 322 325 327 323 321 322 325 326 320 323 335 340 338 336 332 331 339 336 340 342 341 339 331 327 331 326 337 338 337 329 328 330 334 333 335
317 316 317 318 319 319 319 319 320 319 319 320 320 320 321 324 326 322 321 321 322 320 321 320 327 332 343 339 338 338 338 332 336 337 337 338 332 327 322 321 324 333 336 324 325 331 334 335 333
317 318 318 318 319 318 318 318 319 319 319 319 319 319 319 323 322 321 320 320 321 317 316 316 317 329 333 336 332 335 339 334 330 333 335 330 325 327 322 321 323 327 330 323 331 334 334 334 334
316 317 319 319 318 318 318 319 319 319 319 319 318 318 318 320 321 320 319 319 321 324 316 315 316 318 333 335 334 337 342 337 327 325 330 331 331 328 330 322 324 325 322 328 334 334 334 336 334
316 317 317 317 317 317 318 318 318 319 319 318 318 318 318 318 318 319 318 318 322 319 315 315 314 315 317 326 333 332 336 345 342 336 332 335 337 337 329 328 323 322 322 325 330 335 338 338 342
315 316 317 317 318 318 317 318 318 318 318 317 317 317 317 317 317 317 317 319 320 320 316 314 314 315 314 316 326 332 331 342 345 341 338 331 332 341 340 334 330 330 328 326 329 333 336 342 347
316 316 316 316 317 318 318 318 319 318 318 317 317 317 317 317 316 316 318 318 318 319 320 321 314 314 313 315 316 318 329 334 337 341 343 338 334 334 341 342 341 338 337 331 340 337 337 338 345
315 316 316 317 317 317 317 317 317 318 318 317 317 317 318 319 318 317 317 317 317 318 319 321 317 313 313 313 314 315 319 327 330 335 343 340 341 335 334 335 334 340 342 341 340 337 335 345 345
315 315 316 316 316 316 317 317 317 318 318 318 317 316 316 316 318 318 317 317 316 317 318 320 318 323 315 317 313 313 314 319 322 329 332 335 342 345 341 332 334 335 345 343 345 341 341 337 341
315 315 316 317 317 318 318 317 317 317 317 317 318 315 314 315 317 317 317 317 317 317 318 320 320 322 321 322 325 326 320 315 315 315 321 331 334 337 345 346 347 350 350 351 347 342 345 337 340
316 317 316 320 320 319 317 317 317 316 316 315 314 314 315 316 317 317 317 317 318 317 317 319 321 323 324 324 325 326 326 326 326 326 325 329 329 331 333 341 344 347 349 341 341 347 349 341 337
316 317 317 318 318 318 318 319 318 316 315 315 314 315 317 316 316 316 316 316 318 318 318 319 321 321 321 324 326 328 328 327 327 324 324 330 331 328 330 340 345 343 342 345 342 345 344 340 334
316 316 318 318 317 317 317 317 317 317 317 315 316 316 316 316 315 315 315 315 316 317 318 319 320 320 320 320 323 326 328 329 329 328 327 321 323 326 335 337 337 337 346 344 342 342 344 340 333
316 315 317 317 321 322 320 318 317 317 316 317 316 316 316 316 316 316 316 316 316 316 317 318 319 319 320 320 320 322 326 328 330 330 330 330 325 318 316 325 341 344 344 348 349 347 341 334 336
316 317 319 321 320 319 318 317 316 316 317 317 316 316 316 316 316 316 316 316 316 316 316 316 316 317 319 319 319 319 321 324 327 330 332 332 332 328 327 331 340 343 348 349 348 341 344 345 347

GFSSGP_850_thetae_075.txt.gz
Theta_e
323 323 325 326 320 321 322 325 327 329 329 326 328 330 337 341 342 344 344 341 342 334 322 322 323 322 326 333 340 339 330 326 322 319 318 321 323 321 320 319 319 319 319 319 319 320 320 320 319
323 324 325 325 320 321 323 326 327 324 325 327 327 327 333 335 338 342 345 345 340 340 322 321 321 321 324 328 336 335 327 324 322 319 318 319 319 319 319 319 319 320 320 320 320 320 320 320 320
323 325 327 322 321 321 324 326 326 325 326 326 326 327 333 334 335 337 340 345 341 341 324 321 320 320 323 323 330 331 326 323 321 319 319 319 320 320 320 320 320 320 320 320 320 320 320 320 320
323 324 327 323 323 324 325 325 326 326 326 327 326 327 332 332 334 337 339 343 346 343 337 321 320 320 322 323 323 328 326 324 322 320 320 320 320 320 320 320 320 320 320 320 320 320 320 320 320
322 323 323 325 323 324 325 326 326 324 325 326 326 326 332 330 332 338 339 342 343 346 343 322 320 320 322 323 323 325 328 328 325 321 320 320 320 320 320 320 320 320 320 320 320 319 319 319 320
320 324 323 324 325 326 327 328 329 325 326 325 326 327 330 330 330 333 337 341 344 345 345 324 320 320 322 323 323 324 327 329 327 323 320 320 320 320 320 320 320 320 320 320 319 319 319 319 319
319 319 322 324 326 326 327 328 330 328 328 326 326 328 329 330 329 329 340 337 344 345 345 335 321 320 322 323 323 324 325 327 327 324 321 320 320 320 320 319 320 320 319 319 319 318 318 318 318
319 318 321 323 324 325 326 327 327 326 327 329 326 328 329 328 328 329 337 339 343 347 345 344 322 320 321 323 324 324 325 326 326 325 321 320 320 320 320 320 319 319 319 319 319 318 318 318 318
319 317 319 322 324 324 325 325 327 326 325 325 327 328 329 329 329 328 328 340 344 346 346 344 334 321 321 323 324 326 325 326 326 325 323 320 320 320 320 320 319 319 319 319 319 319 318 318 318
316 317 319 321 322 322 322 323 323 326 325 325 326 328 329 328 327 328 327 331 342 347 346 344 343 328 322 324 324 325 327 327 326 324 323 321 320 320 320 320 320 320 319 320 320 319 319 319 320
316 317 318 320 322 322 322 322 323 323 324 326 326 327 328 328 327 327 327 327 330 344 351 346 343 343 325 323 324 324 325 325 326 324 323 321 320 320 320 320 321 321 321 322 321 320 321 321 326
315 317 318 319 321 321 321 322 322 322 326 327 328 328 328 328 327 327 327 326 328 335 340 349 346 342 334 321 324 325 323 324 325 323 322 321 320 320 320 321 324 328 329 332 328 324 326 326 330
314 315 318 319 320 320 321 321 321 321 322 322 328 328 327 327 326 326 326 326 328 330 338 344 348 344 341 327 323 336 327 322 322 322 321 321 320 320 321 321 329 335 333 333 328 329 332 332 333
315 315 316 318 318 320 319 320 320 321 321 321 322 327 328 328 327 326 326 325 328 329 329 339 345 345 344 335 339 342 341 338 327 321 321 320 321 321 321 323 331 336 332 329 329 335 336 335 335
316 313 314 315 316 315 318 316 317 319 320 320 320 322 327 326 327 326 326 326 325 330 326 333 340 347 345 343 342 347 345 344 341 337 327 327 324 324 322 324 327 332 332 328 334 339 336 335 338
313 312 313 314 315 316 316 315 317 318 319 320 320 320 321 326 326 326 324 325 324 326 327 325 339 345 346 345 342 346 347 344 341 340 339 338 338 339 337 329 328 332 334 329 335 336 338 333 332
312 311 312 314 316 316 315 315 316 318 318 319 320 320 320 320 321 324 323 324 325 323 325 322 333 339 338 340 339 341 345 345 344 343 344 343 342 342 341 339 334 335 334 330 335 337 334 329 328
313 313 314 314 315 315 315 315 316 318 318 318 319 319 319 320 321 322 324 324 323 322 322 322 321 329 336 332 332 335 341 345 344 342 343 342 343 343 342 341 337 338 330 333 338 339 338 330 330
314 315 315 316 317 316 315 316 316 317 318 317 318 318 320 321 320 320 323 323 322 322 321 321 320 322 337 334 332 332 332 336 344 343 336 341 343 343 342 340 335 334 332 325 328 328 330 330 327
315 314 313 315 316 316 315 316 316 317 318 318 318 318 320 320 320 320 322 323 322 322 321 320 319 317 329 341 339 335 333 333 335 334 333 334 333 337 339 340 339 332 334 332 331 331 333 330 325
315 314 314 315 315 315 314 315 315 316 318 318 318 318 319 319 319 319 323 322 321 320 320 319 317 317 317 334 345 343 335 340 338 339 338 337 334 336 335 337 337 336 333 335 334 334 332 333 329
314 315 315 315 314 314 314 314 314 316 315 316 317 317 317 320 319 319 321 322 320 320 320 319 319 317 316 319 327 340 336 331 333 334 338 337 339 335 335 338 338 335 334 336 335 333 332 332 332
315 315 314 315 314 313 314 314 314 315 315 315 315 318 318 319 319 319 321 320 320 320 320 320 320 320 320 317 319 321 322 321 323 323 336 338 336 334 332 332 338 340 340 338 338 334 333 333 335
318 317 313 313 312 312 313 314 315 315 315 316 317 318 319 319 319 319 318 318 319 319 319 319 320 319 319 317 315 323 325 322 321 321 322 334 337 332 331 332 332 336 335 339 339 337 335 334 336
318 318 319 312 311 314 314 315 315 316 318 318 317 318 318 318 319 319 318 318 318 318 318 317 317 318 316 317 316 317 317 319 320 322 323 323 334 336 333 333 332 332 331 331 341 341 338 335 334
318 319 320 321 315 316 317 316 316 318 319 318 318 318 319 319 319 319 319 318 318 318 317 317 318 320 321 321 317 321 323 318 318 320 316 318 325 333 336 336 336 333 329 338 343 343 342 339 336
318 320 318 319 318 320 318 317 317 317 318 319 317 317 317 316 315 319 319 318 319 318 318 318 319 322 323 323 323 322 321 319 318 315 315 318 317 316 319 320 324 334 334 335 338 341 343 344 343
317 316 318 319 321 321 318 317 316 318 318 317 317 316 316 317 317 317 317 316 316 317 318 318 319 319 319 319 321 321 321 324 326 328 329 328 325 321 318 319 322 323 329 336 335 336 343 346 345
313 316 317 317 319 321 321 316 318 317 316 317 317 317 316 317 317 316 316 316 316 316 316 316 317 318 319 320 320 320 320 320 321 325 329 329 328 329 329 322 316 314 315 326 340 342 343 343 342
315 315 316 317 320 318 319 317 316 317 316 316 316 316 316 317 317 316 316 316 317 317 317 317 318 319 320 318 318 320 320 320 319 319 320 322 324 325 326 329 327 324 320 314 322 341 343 342 335